Regional Weather Roundup
Issued by NWS Northern Indiana

Home | Current Version | Previous Version | Graphics & Text | Print | Product List | Glossary On
Versions: 1 2 3 4 5 6 7 8 9 10 11 12 13 14 15 16 17 18 19 20 21 22 23 24 25 26 27 28 29 30 31 32 33 34 35 36 37 38 39 40 41 42 43 44 45 46 47 48 49 50
000
ASUS43 KIWX 061010
RWRIWX

KIWX WEATHER ROUNDUP
NATIONAL WEATHER SERVICE NORTHERN INDIANA
600 AM EDT MON JUL 06 2015

NOTE: "FAIR" INDICATES FEW OR NO CLOUDS BELOW 12,000 FEET WITH NO
SIGNIFICANT WEATHER AND/OR OBSTRUCTIONS TO VISIBILITY.

* THESE STATIONS ARE NOT UNDER NWS QUALITY CONTROL. THEY ALSO MAY NOT
  REPORT WEATHER SUCH AS PRECIPITATION OR FOG.

INZ001>027-061100-
NORTHERN INDIANA

CITY           SKY/WX    TMP DP  RH WIND       PRES   REMARKS
GARY*          CLEAR    N/A N/A N/A S8        30.01F
VALPARAISO     PTCLDY    62  61  96 CALM      30.04F FOG
MICHIGAN CITY* CLEAR     66  64  94 S3        30.03F
LAPORTE*       CLEAR     62  62 100 CALM      30.05R
KNOX*          CLEAR     63  63 100 CALM      30.03S
SOUTH BEND     CLEAR     63  59  87 CALM      30.05F
GOSHEN         CLEAR     59  57  93 CALM      30.04F FOG
MONTICELLO*    CLEAR     64  64  99 CALM      30.04S
LOGANSPORT*    CLEAR     59  55  88 SE5       30.06S FOG
ROCHESTER*     CLEAR     68  64  88 CALM      30.05F
WARSAW*          N/A     59  59 100 CALM      30.06S FOG
ANGOLA*          N/A     57  57 100 CALM      30.07F
FORT WAYNE     CLEAR     60  58  92 CALM      30.08S
HUNTINGTON*    CLEAR     60  59  97 CALM      30.07S FOG
PERU/GRISSOM   CLEAR     64  61  90 SW2       30.05S
MARION*        CLEAR     59  58  97 CALM      30.08S FOG

$$
INZ028>050-061100-
CENTRAL INDIANA

CITY           SKY/WX    TMP DP  RH WIND       PRES   REMARKS
LAFAYETTE      CLEAR     63  61  93 CALM      30.05R FOG
KOKOMO*        CLEAR     63  57  82 SE5       30.06S
MUNCIE*        CLEAR     62  59  90 CALM      30.08S FOG
INDIANAPOLIS   CLEAR     65  61  87 W6        30.05S

$$
MIZ043>046-050>051-056>058-064>065-071>073-077>080-061100-
SOUTHWEST LOWER MICHIGAN

CITY           SKY/WX    TMP DP  RH WIND       PRES   REMARKS
BATTLE CREEK   CLEAR     63  59  87 S5        30.06F
BENTON HARBOR  CLEAR     61  58  90 SE3       30.02F
COLDWATER*     CLEAR     58  57  98 CALM      30.07F FOG
HILLSDALE*     CLEAR     59  59 100 SE5       30.08F FOG
HOLLAND        CLEAR     63  60  90 S5        30.02F
GRAND RAPIDS   CLEAR     62  59  90 S8        30.03F
KALAMAZOO      CLEAR     63  59  87 SE5       30.06R
STURGIS*       CLEAR     61  59  94 CALM      30.05F FOG
THREE RIVERS*  FAIR      60  58  93 CALM      30.06S FOG

$$
OHZ001>008-015>018-024>025-061100-
NORTHWEST OHIO

CITY           SKY/WX    TMP DP  RH WIND       PRES   REMARKS
DEFIANCE       CLEAR     59  57  93 CALM      30.08R FOG
FINDLAY        FOG       60  58  92 CALM      30.08R VSB 3/4
TOLEDO EXPRESS CLEAR     57  56  96 CALM      30.07S FOG
TOLEDO METCALF CLEAR     62  58  86 CALM      30.09R
LIMA           CLEAR     59  56  89 CALM      30.09R

$$
AND FOR LAKE MICHIGAN COASTAL AND OPEN LAKE BUOY OBSERVATIONS

STATION/POSITION TEMP    WIND        PRES    VSBY  WAVE
                 AIR SEA DIR/SP/G                  HT/PER
                 (F)     (DEG/KT/KT) (MB)    (MI)  (FT/S)
CALUMET HARBOR    70     170/  5/  6   N/A
MICHIGAN CITY     69     150/ 11/ 14   N/A
BURNS HARBOR      69     180/  8/ 11 1017.3R
SAINT JOSEPH      68     130/  3/  7 1016.6F
4 MI NW BRIDGMAN  67 65  210/ 10/ 10   N/A           1
MICHIGAN CITY     67 66  190/  8/ 10   N/A           1

$$
&&



USA.gov is the U.S. government's official web portal to all federal, state and local government web resources and services.